Date String (YYYY-MM-DD hh:mm:ss) UTC,Instrument flags,Ambient pressure (hPa),Sample flow (lpm),Bypass flow (lpm),Sample temperature (°C),Ambient temperature (°C),ASC tube jacket temperature (°C),LED temperature (°C),Box temperature (°C),Sample RH (%),Span deviation,Mass concentration (μg/m³),Mass concentration (μg/m³),Mass concentration (μg/m³)
DateTimeUTC,F1_M11,P_M11,Q1_M11,Q2_M11,T1_M11,T2_M11,T3_M11,T4_M11,T5_M11,U1_M11,ZSPAN_M11,X2_M11,X0_M11,X1_M11
2021-12-12 15:00:00,,0819.6,5.00,0.00,22.5,22.2,00.0,31.4,24.3,08.4,0000.0,0003.90,0009.22,0003.05
2021-12-12 15:01:00,,0819.6,4.99,0.00,22.6,23.0,00.0,31.5,24.6,08.3,0000.0,0003.91,0009.55,0003.05
2021-12-12 15:02:00,,0819.6,5.00,0.00,22.7,23.1,00.0,31.5,24.7,08.3,0000.0,0003.92,0010.22,0003.09
2021-12-12 15:03:00,,0819.6,5.01,0.00,22.7,23.0,00.0,31.5,24.7,08.3,0000.0,0004.00,0011.05,0003.15
2021-12-12 15:04:00,,0819.6,5.01,0.00,22.7,22.8,00.0,31.6,24.6,08.6,0000.0,0004.03,0011.22,0003.18
2021-12-12 15:05:00,,0819.6,4.98,0.00,22.7,22.6,00.0,31.6,24.6,08.7,0000.0,0003.97,0010.98,0003.19
2021-12-12 15:06:00,,0819.6,4.99,0.00,22.7,22.5,00.0,31.6,24.6,08.7,0000.0,0003.89,0010.86,0003.19
2021-12-12 15:07:00,,0819.6,4.99,0.00,22.8,22.4,00.0,31.6,24.6,08.8,0000.0,0003.89,0010.11,0003.18
2021-12-12 15:08:00,,0819.7,5.00,0.00,22.8,22.4,00.0,31.6,24.6,08.8,0000.0,0003.90,0010.49,0003.16
2021-12-12 15:09:00,,0819.7,5.00,0.00,22.8,22.3,00.0,31.6,24.6,08.6,0000.0,0003.88,0010.83,0003.14
2021-12-12 15:10:00,,0819.7,4.99,0.00,22.8,22.3,00.0,31.6,24.6,08.4,0000.0,0003.85,0010.82,0003.07
2021-12-12 15:11:00,,0819.6,5.01,0.00,22.8,22.2,00.0,31.6,24.6,08.4,0000.0,0003.79,0010.72,0002.97
2021-12-12 15:12:00,,0819.4,5.00,0.00,22.8,22.2,00.0,31.6,24.6,08.5,0000.0,0003.74,0010.49,0002.92
2021-12-12 15:13:00,,0819.4,5.01,0.00,22.8,22.1,00.0,31.6,24.5,08.5,0000.0,0003.77,0009.84,0002.91
2021-12-12 15:14:00,,0819.5,4.99,0.00,22.7,22.1,00.0,31.7,24.5,08.5,0000.0,0003.83,0009.41,0002.91
2021-12-12 15:15:00,,0819.6,5.00,0.00,22.7,22.0,00.0,31.7,24.5,08.5,0000.0,0003.89,0010.14,0002.92
2021-12-12 15:16:00,,0819.7,5.01,0.00,22.7,22.0,00.0,31.7,24.5,08.6,0000.0,0003.94,0010.25,0002.94
2021-12-12 15:17:00,,0819.7,5.00,0.00,22.7,22.0,00.0,31.7,24.5,08.7,0000.0,0004.00,0009.94,0002.96
2021-12-12 15:18:00,,0819.6,4.99,0.00,22.7,22.0,00.0,31.7,24.5,08.6,0000.0,0003.99,0009.70,0002.94
2021-12-12 15:19:00,,0819.6,5.00,0.00,22.7,22.0,00.0,31.7,24.5,08.5,0000.0,0003.95,0009.65,0002.90
2021-12-12 15:20:00,,0819.5,5.00,0.00,22.7,22.0,00.0,31.7,24.5,08.4,0000.0,0003.90,0009.67,0002.86
2021-12-12 15:21:00,,0819.5,5.00,0.00,22.7,22.0,00.0,31.7,24.5,08.4,0000.0,0003.88,0010.03,0002.86
2021-12-12 15:22:00,,0819.6,5.00,0.00,22.7,22.0,00.0,31.7,24.5,08.3,0000.0,0003.84,0009.91,0002.83
2021-12-12 15:23:00,,0819.5,5.00,0.00,22.7,22.0,00.0,31.7,24.5,08.4,0000.0,0003.81,0009.80,0002.77
2021-12-12 15:24:00,,0819.5,5.00,0.00,22.7,22.0,00.0,31.7,24.5,08.4,0000.0,0003.71,0009.62,0002.70
2021-12-12 15:25:00,,0819.6,5.00,0.00,22.7,22.0,00.0,31.7,24.5,08.5,0000.0,0003.63,0009.46,0002.64
2021-12-12 15:26:00,,0819.7,4.99,0.00,22.7,22.0,00.0,31.7,24.5,08.5,0000.0,0003.55,0008.79,0002.58
2021-12-12 15:27:00,,0819.7,5.00,0.00,22.7,22.0,00.0,31.7,24.5,08.5,0000.0,0003.48,0008.44,0002.51
2021-12-12 15:28:00,,0819.7,5.00,0.00,22.7,22.0,00.0,31.7,24.5,08.4,0000.0,0003.38,0008.59,0002.43
2021-12-12 15:29:00,,0819.5,4.99,0.00,22.7,22.0,00.0,31.7,24.5,08.2,0000.0,0003.30,0008.65,0002.33
2021-12-12 15:30:00,,0819.5,5.00,0.00,22.7,22.0,00.0,31.7,24.5,08.2,0000.0,0003.25,0008.32,0002.27
2021-12-12 15:31:00,,0819.4,5.01,0.00,22.7,22.0,00.0,31.7,24.5,08.1,0000.0,0003.20,0008.32,0002.20
2021-12-12 15:32:00,,0819.5,4.99,0.00,22.7,22.0,00.0,31.7,24.5,08.1,0000.0,0003.11,0007.55,0002.13
2021-12-12 15:33:00,,0819.4,5.01,0.00,22.8,22.0,00.0,31.7,24.5,08.1,0000.0,0003.05,0007.51,0002.08
2021-12-12 15:34:00,,0819.4,4.99,0.00,22.8,22.0,00.0,31.7,24.5,08.1,0000.0,0002.96,0007.58,0002.03
2021-12-12 15:35:00,,0819.4,5.00,0.00,22.8,22.0,00.0,31.7,24.5,08.1,0000.0,0002.87,0007.50,0001.95
2021-12-12 15:36:00,,0819.6,5.01,0.00,22.8,22.0,00.0,31.7,24.5,08.1,0000.0,0002.76,0007.36,0001.86
2021-12-12 15:37:00,,0819.7,4.98,0.00,22.8,22.0,00.0,31.7,24.5,08.4,0000.0,0002.66,0007.42,0001.81
2021-12-12 15:38:00,,0819.7,5.01,0.00,22.8,22.0,00.0,31.7,24.5,08.8,0000.0,0002.73,0007.67,0001.86
2021-12-12 15:39:00,,0819.6,5.01,0.00,22.8,22.0,00.0,31.7,24.5,08.6,0000.0,0002.73,0007.44,0001.87
2021-12-12 15:40:00,,0819.7,5.00,0.00,22.7,22.0,00.0,31.7,24.5,08.3,0000.0,0002.82,0007.31,0001.87
2021-12-12 15:41:00,,0819.7,5.00,0.00,22.7,22.0,00.0,31.7,24.5,08.2,0000.0,0002.82,0007.49,0001.87
2021-12-12 15:42:00,,0819.7,4.98,0.00,22.7,22.0,00.0,31.7,24.5,08.1,0000.0,0002.90,0007.49,0001.87
2021-12-12 15:43:00,,0819.7,5.00,0.00,22.7,22.0,00.0,31.7,24.5,08.2,0000.0,0002.95,0008.13,0001.87
2021-12-12 15:44:00,,0819.7,5.01,0.00,22.7,22.0,00.0,31.7,24.5,08.3,0000.0,0002.95,0008.08,0001.88
2021-12-12 15:45:00,,0819.5,4.99,0.00,22.7,22.0,00.0,31.7,24.5,08.4,0000.0,0002.98,0008.27,0001.91
2021-12-12 15:46:00,,0819.5,5.00,0.00,22.7,22.0,00.0,31.7,24.5,08.0,0000.0,0002.96,0008.26,0001.89
2021-12-12 15:47:00,,0819.5,5.00,0.00,22.7,22.0,00.0,31.7,24.5,07.9,0000.0,0002.89,0008.23,0001.85
2021-12-12 15:48:00,,0819.6,5.01,0.00,22.7,22.0,00.0,31.7,24.5,07.9,0000.0,0002.74,0007.92,0001.76
2021-12-12 15:49:00,,0819.7,5.00,0.00,22.7,22.0,00.0,31.7,24.5,07.7,0000.0,0002.50,0007.81,0001.58
2021-12-12 15:50:00,,0819.7,5.00,0.00,22.7,22.0,00.0,31.7,24.5,07.6,0000.0,0002.28,0008.42,0001.41
2021-12-12 15:51:00,,0819.7,4.99,0.00,22.8,22.0,00.0,31.7,24.5,07.6,0000.0,0002.08,0008.29,0001.31
2021-12-12 15:52:00,,0819.7,5.00,0.00,22.8,22.0,00.0,31.7,24.5,07.6,0000.0,0001.99,0007.89,0001.24
2021-12-12 15:53:00,,0819.7,5.01,0.00,22.8,22.0,00.0,31.7,24.5,07.6,0000.0,0001.85,0007.19,0001.18
2021-12-12 15:54:00,,0819.7,4.99,0.00,22.8,22.0,00.0,31.7,24.5,07.6,0000.0,0001.72,0005.95,0001.12
2021-12-12 15:55:00,,0819.6,5.00,0.00,22.8,22.0,00.0,31.7,24.5,07.5,0000.0,0001.64,0005.81,0001.07
2021-12-12 15:56:00,,0819.5,5.01,0.00,22.8,22.0,00.0,31.7,24.6,07.5,0000.0,0001.47,0004.83,0000.98
2021-12-12 15:57:00,,0819.5,5.00,0.00,22.8,22.0,00.0,31.7,24.6,07.5,0000.0,0001.37,0004.55,0000.93
2021-12-12 15:58:00,,0819.5,5.01,0.00,22.8,22.0,00.0,31.7,24.6,07.4,0000.0,0001.29,0004.29,0000.90
2021-12-12 15:59:00,,0819.5,4.99,0.00,22.8,22.0,00.0,31.7,24.6,07.3,0000.0,0001.27,0004.40,0000.88
